Location: Poughquag
(41.6090°N, 73.6820°W)
Time: 14:53:44
(UTC-04:00)

Vanguard 2 - Pass Details

Date: 04 June 2020
Orbit: 552 x 2938 km, 32.9° (Epoch: 06 July)

Event Time Altitude Azimuth Distance (km) Brightness Sun altitude
Rises 16:48:59 0° 219° (SW) 6,780 12.8 37.7°
Reaches altitude 10° 16:54:16 10° 211° (SSW) 5,692 12.5 36.7°
Maximum altitude 17:08:25 34° 155° (SSE) 3,476 10.9 34.0°
Drops below altitude 10° 17:18:54 10° 97° (E) 4,238 10.9 32.1°
Sets 17:22:09 0° 88° (E) 4,917 11.1 31.5°
